Price, UT

6:56 AM MDT on June 24, 2017 (GMT -0600)
Carbon County

Weather History for KPUC - February, 2014

Change the Weather History Date:

Monday, February 10, 2014

  Actual Average Record
Temperature  
Mean Temperature 40 °F -  
Max Temperature 48 °F 35 °F 58 °F (1977)
Min Temperature 32 °F 18 °F -2 °F (1974)
Degree Days  
Heating Degree Days 25    
Moisture  
Dew Point 29 °F    
Average Humidity 75    
Maximum Humidity 96    
Minimum Humidity 44    
Precipitation  
Precipitation 0.18 in - - ()
Sea Level Pressure  
Sea Level Pressure 30.03 in    
Wind  
Wind Speed 6 mph (NNW)    
Max Wind Speed 21 mph    
Max Gust Speed 36 mph    
Visibility 8 miles    
Events Fog , Rain , Snow    
Averages and records for this station are not official NWS values.
T = Trace of Precipitation, MM = Missing Value Source: NWS Daily Summary

Daily Weather History Graph

Daily Weather History Graph

Search for Another Location

Airport or City:

Trip Planner

Search our weather history database for the weather conditions in past years. The results will help you decide how hot, cold, wet, or windy it might be!

Date:

Astronomy

Feb. 10, 2014 Rise Set
Actual Time 7:21 AM MST 5:53 PM MST
Civil Twilight 6:53 AM MST 6:21 PM MST
Nautical Twilight 6:21 AM MST 6:53 PM MST
Astronomical Twilight 5:50 AM MST 7:24 PM MST
Moon 2:26 PM MST (2/10) 4:16 AM MST (2/10)
Length of Visible Light 11h 28m
Length of Day
10h 32m
Waxing Gibbous, 85% of the Moon is Illuminated
Feb 10
Waxing Gibbous
Feb 14
Full
Feb 22
Last Quarter
Mar 1
New
Mar 8
First Quarter

Hourly Weather History & Observations

Time (MST) Temp. Windchill Dew Point Humidity Pressure Visibility Wind Dir Wind Speed Gust Speed Precip Events Conditions
12:53 AM 32.0 °F 25.6 °F 27.0 °F 82% 30.04 in 10.0 mi NE 6.9 mph - N/A   Overcast
1:53 AM 35.1 °F 28.6 °F 28.0 °F 76% 30.02 in 10.0 mi NNE 8.1 mph - N/A   Overcast
2:50 AM 37.4 °F - 30.2 °F 75% 29.96 in 10.0 mi Calm Calm - 0.01 in Rain Light Rain
2:53 AM 37.0 °F - 30.9 °F 79% 29.98 in 8.0 mi Calm Calm - 0.01 in Rain Light Rain
3:07 AM 36.0 °F 33.3 °F 30.9 °F 82% 29.96 in 5.0 mi Variable 3.5 mph - 0.02 in Rain Rain
3:53 AM 35.1 °F 32.2 °F 32.0 °F 89% 29.98 in 7.0 mi NW 3.5 mph - 0.07 in Rain Light Rain
4:17 AM 34.0 °F - 32.0 °F 92% 29.94 in 6.0 mi Calm Calm - 0.02 in Snow Light Snow
4:46 AM 34.0 °F 28.8 °F 30.9 °F 89% 29.93 in 3.0 mi East 5.8 mph - 0.06 in Snow Light Snow
4:53 AM 33.1 °F 27.7 °F 32.0 °F 96% 29.96 in 3.0 mi ESE 5.8 mph - 0.08 in Snow Light Snow
5:00 AM 34.0 °F 31.0 °F 32.0 °F 92% 29.93 in 5.0 mi East 3.5 mph - 0.01 in Rain Light Rain
5:21 AM 33.1 °F - 32.0 °F 96% 29.93 in 5.0 mi Calm Calm - 0.01 in Snow Light Snow
5:37 AM 33.1 °F - 30.9 °F 92% 29.94 in 5.0 mi Calm Calm - 0.01 in Snow Light Snow
5:53 AM 34.0 °F 28.8 °F 32.0 °F 92% 29.97 in 10.0 mi East 5.8 mph - 0.01 in   Overcast
6:46 AM 34.0 °F 31.0 °F 32.0 °F 92% 29.95 in 8.0 mi WNW 3.5 mph - 0.01 in   Overcast
6:53 AM 34.0 °F 31.0 °F 32.0 °F 92% 30.01 in 10.0 mi West 3.5 mph - 0.01 in   Overcast
7:11 AM 34.0 °F - 32.0 °F 92% 29.95 in 10.0 mi Calm Calm - 0.00 in   Overcast
7:31 AM 33.1 °F - 30.9 °F 92% 29.95 in 0.5 mi Calm Calm - 0.00 in Fog Fog
7:41 AM 32.0 °F 28.7 °F 30.9 °F 96% 29.95 in 0.2 mi North 3.5 mph - 0.00 in Fog Fog
7:53 AM 33.1 °F - 30.9 °F 92% 30.03 in 0.5 mi Calm Calm - 0.00 in Fog Fog
7:57 AM 33.1 °F - 32.0 °F 96% 29.95 in 1.5 mi Calm Calm - N/A   Scattered Clouds
8:01 AM 34.0 °F - 32.0 °F 92% 29.95 in 3.0 mi Calm Calm - N/A   Scattered Clouds
8:53 AM 37.0 °F - 34.0 °F 89% 30.05 in 10.0 mi Calm Calm - N/A   Clear
9:18 AM 37.9 °F - 35.1 °F 89% 29.99 in 10.0 mi Calm Calm - N/A   Partly Cloudy
9:53 AM 39.0 °F 35.7 °F 36.0 °F 89% 30.09 in 10.0 mi South 4.6 mph - N/A   Scattered Clouds
10:53 AM 45.0 °F 37.9 °F 32.0 °F 60% 30.08 in 10.0 mi NNW 16.1 mph 23.0 mph N/A   Clear
11:53 AM 46.9 °F - 30.9 °F 54% 30.08 in 10.0 mi NW 12.7 mph 18.4 mph N/A   Clear
12:53 PM 48.0 °F - 28.0 °F 46% 30.07 in 10.0 mi WNW 15.0 mph 24.2 mph N/A   Partly Cloudy
1:53 PM 46.0 °F 38.3 °F 28.9 °F 51% 30.06 in 10.0 mi NNW 20.7 mph 28.8 mph N/A   Clear
2:53 PM 46.0 °F 38.8 °F 26.1 °F 46% 30.06 in 10.0 mi NNW 18.4 mph 24.2 mph N/A   Clear
3:53 PM 45.0 °F 37.1 °F 24.1 °F 44% 30.09 in 10.0 mi NW 19.6 mph 35.7 mph N/A   Clear
4:53 PM 44.1 °F 36.8 °F 24.1 °F 45% 30.10 in 10.0 mi NW 16.1 mph 25.3 mph N/A   Clear
5:53 PM 39.9 °F 30.5 °F 21.9 °F 49% 30.14 in 10.0 mi NW 19.6 mph 27.6 mph N/A   Clear
6:53 PM 37.9 °F 29.2 °F 21.9 °F 53% 30.19 in 10.0 mi NW 15.0 mph 23.0 mph N/A   Clear
7:53 PM 37.0 °F 29.3 °F 21.0 °F 52% 30.21 in 10.0 mi NW 11.5 mph 23.0 mph N/A   Clear
8:53 PM 37.0 °F 29.3 °F 19.9 °F 50% 30.20 in 10.0 mi NNW 11.5 mph 17.3 mph N/A   Clear
9:53 PM 36.0 °F 27.5 °F 21.0 °F 55% 30.19 in 10.0 mi NNW 12.7 mph 23.0 mph N/A   Clear
10:53 PM 36.0 °F 26.3 °F 19.9 °F 52% 30.16 in 10.0 mi NW 16.1 mph 23.0 mph N/A   Clear
11:53 PM 35.1 °F 27.4 °F 19.9 °F 54% 30.17 in 10.0 mi NW 10.4 mph - N/A   Clear